Regional Weather Roundup
Issued by NWS Wakefield, VA

Home | Current Version | Previous Version | Graphics & Text | Print | Product List | Glossary On
Versions: 1 2 3 4 5 6 7 8 9 10 11 12 13 14 15 16 17 18 19 20 21 22 23 24 25 26 27 28 29 30 31 32 33 34 35 36 37 38 39 40 41 42 43 44 45 46 47 48 49 50
000
ASUS41 KAKQ 231110
RWRAKQ

REGIONAL WEATHER ROUNDUP
NATIONAL WEATHER SERVICE WAKEFIELD VA
700 AM EDT WED JUL 23 2014

Note: "fair" indicates few or no clouds below 12,000 feet with no
significant weather and/or obstructions to visibility. * = Denotes
station may not report precipitation (e.g., rain,snow,etc.),
thunder or fog.

VAZ042-051-052>054-056-231200-
NORTHERN VIRGINIA

CITY           SKY/WX    TMP DP  RH WIND       PRES   REMARKS
WASH NATIONAL  MOCLDY    76  69  79 SW3       30.01R
DULLES         PTCLDY    72  69  90 S6        30.01R
FORT BELVOIR   CLEAR     71  70  96 VRB1      30.01R
QUANTICO       MOCLDY    74  69  85 SW3       30.01S
FREDERICKSBRG* CLEAR     73  72  98 CALM      30.00S
STAFFORD*      PTCLDY    70  70 100 CALM      30.05R
WARRENTON      PTCLDY    73  73 100 CALM      30.01R
CULPEPER*      PTCLDY   N/A N/A N/A CALM      30.02R
MANASSAS*      NOT AVBL
LEESBURG*      CLEAR     72  72 100 CALM      30.03R
WINCHESTER     CLEAR     73  68  83 SW5       30.03R
$$

VAZ048-049-060>072-079>083-231200-
CENTRAL AND SOUTH CENTRAL VIRGINIA...AND NORTH CENTRAL NORTH CAROLINA

CITY           SKY/WX    TMP DP  RH WIND       PRES   REMARKS
RICHMOND       FOG       71  70  96 S5        30.03R VSB 3/4
CHESTERFIELD*  CLOUDY    70  61  73 CALM      30.05R VSB<1/4
HANOVER        CLEAR     69  67  93 CALM      30.04S
TAPPAHANNOCK*  FOG       71  68  90 CALM      30.03S VSB<1/4
CHARLOTTSVILLE CLEAR     70  68  93 CALM      30.03R
ORANGE*        MOCLDY    70  68  94 CALM      30.04R
LOUISA*        MOCLDY    70  70 100 CALM      30.02R FOG
FARMVILLE*     FOG       70  68  94 CALM      30.03R VSB<1/4
SOUTH HILL*    FOG       73  73 100 CALM      30.10S VSB 1/4
ROANOKE RAPIDS CLOUDY    64  64 100 CALM      30.06R FOG
RALEIGH        FOG       72  71  97 CALM      30.07R VSB 1/2
$$

VAZ088>098-231200-
SOUTHEAST VIRGINIA

CITY           SKY/WX    TMP DP  RH WIND       PRES   REMARKS
NORFOLK        CLOUDY    76  72  87 SW6       30.03R
VIRGINIA BEACH MOCLDY    75  73  93 W8        30.02S FOG
NORFOLK NAVAL  CLOUDY    76  73  91 W3        30.05R
WEST POINT*    CLOUDY    75  73  92 CALM      30.04S
NEWPORT NEWS   CLOUDY    79  72  79 SW3       30.03S
LANGLEY AFB    CLOUDY    75  75 100 W2        30.03R
FORT EUSTIS    CLOUDY    73 N/A N/A W3        30.02S
WILLIAMSBURG*  CLOUDY    75  73  94 CALM      30.04S
FRANKLIN*      CLOUDY    73 N/A N/A CALM      30.04S VSB<1/4
WAKEFIELD      FOG       74  72  93 SW3       30.04R VSB 3/4
$$

VAZ020-022-025-037-045-231200-
WESTERN AND SOUTHWEST VIRGINIA

CITY           SKY/WX    TMP DP  RH WIND       PRES   REMARKS
STAUNTON*      CLEAR     69  66  89 CALM      30.09R
HOT SPRINGS VA CLEAR     64  62  93 W9        30.22R
LYNCHBURG      MOCLDY    68  68 100 SW3       30.08R
DANVILLE       CLEAR     69  67  93 CALM      30.07S
MARTINSVILLE   CLOUDY    65  65  99 CALM      30.11R FOG
ROANOKE        PTCLDY    69  66  90 NW3       30.11R
BLACKSBURG     FOG       64  64 100 CALM      30.17R VSB<1/4
DUBLIN*        PTCLDY    64  64 100 CALM      30.16R
MARION*        CLEAR     62  62 100 W3        30.21R
HILLSVILLE*    FOG       63  63 100 W5        30.18R VSB<1/4
RICHLANDS*     SUNNY     71  66  85 CALM      30.18R
WISE*          CLEAR     66  64  94 CALM      30.20R
ABINGDON*      PTCLDY    67  67  98 CALM      30.16R
$$

MDZ021>025-VAZ099-100-231200-
SOUTHERN MARYLAND AND THE DELMARVA PENINSULA

CITY           SKY/WX    TMP DP  RH WIND       PRES   REMARKS
PATUXENT RIVER PTCLDY    73  71  93 SW6       30.01S
BAY BRIDGE APT   N/A     75  72  88 SW6       30.01R
LEONARDTOWN    CLEAR     72  70  94 SW3       30.03R
DOVER          CLOUDY    71  71 100 S7        29.99S
GEORGETOWN     FOG       70  69  97 S10       30.03R VSB 1/2
EASTON         MOSUNNY   75  75 100 S3        30.04S
CAMBRIDGE      CLOUDY    72  68  88 CALM      30.01R
SALISBURY      NOT AVBL
OCEAN CITY     SUNNY     71  69  93 CALM      30.02S FOG
WALLOPS ISLAND SUNNY     73  71  93 CALM      30.02F
ACCOMACK*        N/A     68  66  94 CALM      30.02F FOG
$$

NCZ012>017-030>032-231200-
EASTERN NORTH CAROLINA

CITY           SKY/WX    TMP DP  RH WIND       PRES   REMARKS
ELIZABETH CITY CLOUDY    74  73  97 W6        30.04S
AHOSKIE*       CLOUDY    72  71  97 CALM      30.05R VSB<1/4
EDENTON*       CLOUDY    76  74  95 W5        30.04S
CURRITUCK*     FOG       75  72  91 W6        30.05R VSB 3/4
KILL DEVIL HLS MOCLDY    76  74  96 W5        30.03S
MANTEO         NOT AVBL
CAPE HATTERAS  CLEAR     78  75  90 W7        30.06S
GOLDSBORO      CLOUDY    76  76 100 SW6       30.04S
WASHINGTON     CLOUDY    75  73  95 CALM      30.06S
GREENVILLE     CLOUDY    75  73  94 W3        30.07R FOG
NEW BERN       CLOUDY    76  73  91 W3        30.07S
WILMINGTON     CLEAR     73  72  96 CALM      30.06S
$$

VAZ048-231200-
ELSEWHERE

CITY           SKY/WX    TMP DP  RH WIND       PRES   REMARKS
HARRISBURG PA  SUNNY     75  69  81 CALM      29.99R
BALTIMORE      MOSUNNY   72  69  90 SW3       30.00R
ANNAPOLIS      SUNNY     74  70  87 CALM      30.00R
ANDREWS AFB    CLEAR     73  71  93 SW6       30.01S
WILMINGTON DE  SUNNY     72  69  90 S3        30.01R
PHILADELPHIA   MOSUNNY   73  66  78 S7        30.00S
WILDWOOD NJ*   SUNNY     72  68  88 S6        30.02F
ATLANTIC CITY  MOSUNNY   70  69  97 SW5       30.01F
HENDERSON NC   FOG       72  70  94 SW3       30.06S VSB<1/4
GREENSBORO     PTCLDY    69  68  96 SW5       30.09R
ROCKY MOUNT    CLOUDY    74  73  97 SW3       30.06R FOG
FAYETTEVILLE   CLOUDY    75  74  96 SW6       30.06S FOG
CHARLOTTE      PTCLDY    71  69  93 CALM      30.09S
$$

VAZ100-231200-
MARINE

STATION/POSITION TIME  TEMP    WIND        PRES    WAVE   SWELL
                       AIR SEA DIR/SP/G            HT/PER HT/PER
                 (UTC) (F)     (DEG/KT/KT) (MB)    (FT/S) (FT/S)
44066 TX TWR #4  1100   73 73  230/  8/ 10 1016.6R   2/ 7   2/ 7
CAPE MAY NJ      1100   71 76  200/  3/  5 1016.1S
LEWES DE         1100   71 71  220/  4/  5 1016.1R
15NM E FENWICK I 1100   75 76              1016.4F   2/ 8
OCEAN-CITY-INLET 1100   72 72  210/  2/  2 1016.0S
WACHAPREAGUE VA  1100   74 80   CALM  /  1 1016.2F
THOMAS POINT MD  1100   75 79  220/ 11/ 12 1016.5R
GOOSES REEF MD   1100   76     240/ 10/ 12 1016.4R
COVE POINT MD    1100   74     210/  6/  7 1016.0S
SOLOMONS ISLAND  1100      81                N/A
BISHOPS HEAD MD  1100   77 79  240/  8/ 11 1016.0R
PINEY POINT MD   1100          230/  4/  5   N/A
POTOMAC MD       1100   74     240/  8/ 10 1015.6F
CAMBRIDGE MD     1100   74 80  180/  3/  5 1015.9R
LEWISETTA VA     1100   74 81  230/  7/  9 1016.1R
RAPPAHANNOCK LGT 1100          260/  7/  8 1016.9F
STINGRAY PT      1100   76     250/  6/  8 1017.0F
YORK RVR RNG VA  1100   76     300/  4/  5 1016.1R
YORKTOWN VA      1100   75 80  280/  3/  3 1016.4S
JAMESTOWN VA     1100   72     270/  4/  6   N/A
DOMINION TERM VA 1100   74     250/  5/  6 1016.9R
KIPTOPEKE VA     1100      80  270/  6/  7   N/A
CHES BAY BRIDGE  1100   76 78  250/  6/  8 1016.2R
CAPE HENRY VA    1100   74     250/  4/  5 1015.5S
WILLOUBY STN VA  1100          300/  8/  8 1016.2R
S CRANEY ISL VA  1100          250/  3/  5 1017.0R
CAPE HENRY BUOY  1100      76                N/A     2/ 7
1ST LANDING BUOY 1100   76     230/  4/  6 1016.3S
CAPE CHARLES BUO 1100      75                N/A     2/ 8
OFFSHORE WE BUOY 1100      77                N/A     2/10
64NM E OF VA BCH 1100   77 78  230/  6/  8 1016.4F   3/ 7   2/ 7
DUCK PIER NC     1100   76 73  260/  7/  9 1016.3R
44056 DUCK FRF   1100                        N/A     2/ 8
OREGON INLET NC  1100   76 79  240/ 10/ 12 1017.2R
HATTERAS NC      1100   78 82  250/  7/ 10 1018.2R
DIAMOND SHLS NC  1100          VRB 12/ 17  1017.8R   3/ 8   2/ 8
CAPE LOOKOUT NC  1000   78     250/  6/  8 1017.8S
$$


USA.gov is the U.S. government's official web portal to all federal, state and local government web resources and services.